Paducah, KY

5:48 PM CST on November 18, 2017 (GMT -0600)
Barkley Regional

Weather History for KPAH - March, 2012

Change the Weather History Date:

Saturday, March 3, 2012

  Actual Average Record
Temperature  
Mean Temperature 41 °F 44 °F  
Max Temperature 53 °F 54 °F 77 °F (1976)
Min Temperature 29 °F 34 °F 6 °F (1943)
Degree Days  
Heating Degree Days 24 21  
Month to date heating degree days 44 63  
Since 1 July heating degree days 2847 3359  
Cooling Degree Days 0 0  
Month to date cooling degree days 0 0  
Year to date cooling degree days 0 0  
Moisture  
Dew Point 24 °F    
Average Humidity 60    
Maximum Humidity 92    
Minimum Humidity 28    
Precipitation  
Precipitation 0.00 in 0.11 in 2.90 in (2008)
Month to date precipitation 0.33 0.34  
Year to date precipitation 6.07 7.93  
Snow  
Snow 0.00 in 0.00 in 4.00 in (1965)
Month to date snowfall T 0.1  
Since 1 July snowfall 0.7 8.6  
Snow Depth 0.00 in    
Sea Level Pressure  
Sea Level Pressure 29.92 in    
Wind  
Wind Speed 9 mph (West)    
Max Wind Speed 22 mph    
Max Gust Speed 26 mph    
Visibility 10 miles    
Events      
T = Trace of Precipitation, MM = Missing Value Source: NWS Daily Summary

Daily Weather History Graph

Daily Weather History Graph

Search for Another Location

Airport or City:

Trip Planner

Search our weather history database for the weather conditions in past years. The results will help you decide how hot, cold, wet, or windy it might be!

Date:

Astronomy

Mar. 03, 2012 Rise Set
Actual Time 6:22 AM CST 5:51 PM CST
Civil Twilight 5:56 AM CST 6:17 PM CST
Nautical Twilight 5:26 AM CST 6:47 PM CST
Astronomical Twilight 4:56 AM CST 7:17 PM CST
Moon 1:07 PM CST (3/3) 2:53 AM CST (3/3)
Length of Visible Light 12h 21m
Length of Day
11h 29m
Waxing Gibbous, 75% of the Moon is Illuminated
Mar 3
Waxing Gibbous
Mar 8
Full
Mar 14
Last Quarter
Mar 22
New
Mar 30
First Quarter

Hourly Weather History & Observations

Time (CST) Temp. Windchill Dew Point Humidity Pressure Visibility Wind Dir Wind Speed Gust Speed Precip Events Conditions
12:53 AM 35.1 °F 32.2 °F 28.9 °F 78% 29.89 in 10.0 mi WSW 3.5 mph - N/A   Clear
1:53 AM 33.1 °F 27.7 °F 28.0 °F 82% 29.89 in 10.0 mi WSW 5.8 mph - N/A   Clear
2:53 AM 30.9 °F 26.2 °F 28.0 °F 89% 29.87 in 10.0 mi WSW 4.6 mph - N/A   Clear
3:53 AM 35.1 °F 28.6 °F 28.9 °F 78% 29.89 in 10.0 mi SSW 8.1 mph - N/A   Clear
4:53 AM 35.1 °F 28.6 °F 30.0 °F 82% 29.92 in 10.0 mi SSW 8.1 mph - N/A   Clear
5:53 AM 34.0 °F 27.2 °F 28.9 °F 82% 29.95 in 10.0 mi SW 8.1 mph - N/A   Clear
6:53 AM 34.0 °F 27.2 °F 28.9 °F 82% 29.96 in 10.0 mi SW 8.1 mph - N/A   Clear
7:53 AM 39.0 °F 33.4 °F 32.0 °F 76% 29.96 in 10.0 mi WSW 8.1 mph - N/A   Clear
8:53 AM 44.1 °F 39.0 °F 30.0 °F 58% 29.97 in 10.0 mi West 9.2 mph - N/A   Clear
9:53 AM 46.0 °F 41.4 °F 26.1 °F 46% 29.97 in 10.0 mi WNW 9.2 mph 19.6 mph N/A   Clear
10:53 AM 48.2 °F - 26.6 °F 43% 29.95 in 10.0 mi West 13.8 mph - N/A   Clear
11:53 AM 50.0 °F - 23.0 °F 35% 29.93 in 10.0 mi WNW 12.7 mph 23.0 mph N/A   Clear
12:53 PM 50.0 °F - 24.1 °F 36% 29.90 in 10.0 mi West 13.8 mph 25.3 mph N/A   Clear
1:53 PM 52.0 °F - 24.1 °F 34% 29.86 in 10.0 mi West 19.6 mph 26.5 mph N/A   Partly Cloudy
2:53 PM 52.0 °F - 21.9 °F 31% 29.86 in 10.0 mi West 16.1 mph 25.3 mph N/A   Partly Cloudy
3:53 PM 52.0 °F - 19.0 °F 27% 29.86 in 10.0 mi WNW 16.1 mph 23.0 mph N/A   Partly Cloudy
4:53 PM 50.0 °F - 19.9 °F 31% 29.88 in 10.0 mi NW 10.4 mph 19.6 mph N/A   Clear
5:53 PM 46.9 °F - 19.0 °F 33% 29.89 in 10.0 mi NW 5.8 mph - N/A   Clear
6:53 PM 44.1 °F 40.8 °F 18.0 °F 35% 29.92 in 10.0 mi WNW 5.8 mph - N/A   Clear
7:53 PM 44.1 °F 37.4 °F 18.0 °F 35% 29.94 in 10.0 mi NNW 13.8 mph 18.4 mph N/A   Partly Cloudy
8:53 PM 41.0 °F 38.0 °F 18.0 °F 40% 29.96 in 10.0 mi NW 4.6 mph - N/A   Clear
9:53 PM 39.9 °F 35.8 °F 19.9 °F 45% 29.97 in 10.0 mi NW 5.8 mph - N/A   Clear
10:53 PM 37.9 °F - 19.9 °F 48% 29.96 in 10.0 mi Calm Calm - N/A   Clear
11:53 PM 30.9 °F - 23.0 °F 72% 29.95 in 10.0 mi Calm Calm - N/A   Clear